| time (UTC) | temp F | wind direction | speed MPH | gust MPH | rain 1hr in | rain 24hr in | rain mn in | humidity % | barometer mb |
| 20260904201624 | 100 | 0 | 3.0 | 10.0 | 0.00 | 0.00 | 0.00 | 28 | 1012.9 |
| 20260904200101 | 99 | 0 | 2.0 | 9.0 | 0.00 | 0.00 | 0.00 | 29 | 1013.1 |
| 20260904194559 | 99 | 112 | 2.0 | 4.0 | 0.00 | 0.00 | 0.00 | 32 | 1013.2 |
| 20260904193100 | 98 | 204 | 2.0 | 7.0 | 0.00 | 0.00 | 0.00 | 29 | 1013.5 |
| 20260904191600 | 97 | 123 | 1.0 | 8.0 | 0.00 | 0.00 | 0.00 | 31 | 1013.5 |
| 20260904184602 | 96 | 0 | 5.0 | 10.0 | 0.00 | 0.00 | 0.00 | 31 | 1013.8 |
| 20260904183117 | 96 | 242 | 2.0 | 7.0 | 0.00 | 0.00 | 0.00 | 33 | 1014.1 |
| 20260904181603 | 95 | 28 | 0.0 | 6.0 | 0.00 | 0.00 | 0.00 | 35 | 1014.4 |
| 20260904180104 | 95 | 57 | 2.0 | 9.0 | 0.00 | 0.00 | 0.00 | 34 | 1014.9 |
| 20260904174605 | 95 | 340 | 2.0 | 9.0 | 0.00 | 0.00 | 0.00 | 36 | 1015.1 |
| 20260904173103 | 94 | 348 | 3.0 | 9.0 | 0.00 | 0.00 | 0.00 | 34 | 1015.1 |
| 20260904171617 | 93 | 297 | 3.0 | 9.0 | 0.00 | 0.00 | 0.00 | 34 | 1015.3 |
| 20260904170105 | 93 | 314 | 3.0 | 10.0 | 0.00 | 0.00 | 0.00 | 37 | 1015.4 |
| 20260904164626 | 92 | 317 | 8.0 | 14.0 | 0.00 | 0.00 | 0.00 | 37 | 1015.6 |
| 20260904163101 | 91 | 309 | 4.0 | 13.0 | 0.00 | 0.00 | 0.00 | 39 | 1015.3 |
| 20260904161555 | 90 | 273 | 7.0 | 12.0 | 0.00 | 0.00 | 0.00 | 38 | 1015.2 |
| 20260904154601 | 89 | 284 | 10.0 | 14.0 | 0.00 | 0.00 | 0.00 | 41 | 1015.4 |
| 20260904153111 | 88 | 304 | 10.0 | 15.0 | 0.00 | 0.00 | 0.00 | 41 | 1015.2 |
| 20260904151601 | 88 | 296 | 9.0 | 16.0 | 0.00 | 0.00 | 0.00 | 42 | 1015.3 |
| 20260904144603 | 86 | 296 | 8.0 | 13.0 | 0.00 | 0.00 | 0.00 | 45 | 1015.6 |
| 20260904143106 | 85 | 287 | 3.0 | 6.0 | 0.00 | 0.00 | 0.00 | 46 | 1015.6 |
| 20260904141606 | 83 | 294 | 2.0 | 6.0 | 0.00 | 0.00 | 0.00 | 50 | 1015.7 |
| 20260904140103 | 81 | 282 | 3.0 | 5.0 | 0.00 | 0.00 | 0.00 | 53 | 1015.5 |
| 20260904134602 | 80 | 289 | 3.0 | 5.0 | 0.00 | 0.00 | 0.00 | 55 | 1015.3 |
| 20260904133058 | 80 | 307 | 0.0 | 4.0 | 0.00 | 0.00 | 0.00 | 56 | 1015.3 |
| 20260904131608 | 80 | 274 | 3.0 | 8.0 | 0.00 | 0.00 | 0.00 | 53 | 1014.9 |
| 20260904130100 | 79 | 271 | 4.0 | 8.0 | 0.00 | 0.00 | 0.00 | 54 | 1014.6 |
| 20260904124559 | 79 | 248 | 5.0 | 9.0 | 0.00 | 0.00 | 0.00 | 53 | 1014.6 |
| 20260904123105 | 79 | 266 | 7.0 | 11.0 | 0.00 | 0.00 | 0.00 | 52 | 1014.2 |
| 20260904121605 | 80 | 266 | 7.0 | 12.0 | 0.00 | 0.00 | 0.00 | 52 | 1014.1 |
| 20260904120103 | 80 | 247 | 10.0 | 15.0 | 0.00 | 0.00 | 0.00 | 51 | 1014.0 |
| 20260904114606 | 80 | 250 | 9.0 | 15.0 | 0.00 | 0.00 | 0.00 | 51 | 1014.0 |
| 20260904113053 | 80 | 248 | 9.0 | 15.0 | 0.00 | 0.00 | 0.00 | 51 | 1014.0 |
| 20260904111601 | 79 | 259 | 6.0 | 9.0 | 0.00 | 0.00 | 0.00 | 52 | 1014.0 |
| 20260904104559 | 78 | 269 | 3.0 | 7.0 | 0.00 | 0.00 | 0.00 | 56 | 1013.9 |
| 20260904103100 | 78 | 248 | 6.0 | 8.0 | 0.00 | 0.00 | 0.00 | 53 | 1013.7 |
| 20260904101610 | 77 | 257 | 4.0 | 7.0 | 0.00 | 0.00 | 0.00 | 56 | 1013.9 |
| 20260904100107 | 77 | 236 | 3.0 | 4.0 | 0.00 | 0.00 | 0.00 | 55 | 1013.7 |
| 20260904094610 | 78 | 246 | 2.0 | 5.0 | 0.00 | 0.00 | 0.00 | 55 | 1013.5 |
| 20260904093108 | 78 | 245 | 3.0 | 7.0 | 0.00 | 0.00 | 0.00 | 53 | 1013.4 |
| 20260904091614 | 79 | 250 | 4.0 | 5.0 | 0.00 | 0.00 | 0.00 | 51 | 1013.6 |
| 20260904090100 | 80 | 261 | 2.0 | 5.0 | 0.00 | 0.00 | 0.00 | 51 | 1013.5 |
| 20260904084555 | 80 | 257 | 0.0 | 3.0 | 0.00 | 0.00 | 0.00 | 52 | 1013.5 |
| 20260904083105 | 80 | 278 | 2.0 | 4.0 | 0.00 | 0.00 | 0.00 | 51 | 1013.6 |
| 20260904081556 | 81 | 286 | 3.0 | 5.0 | 0.00 | 0.00 | 0.00 | 49 | 1013.6 |
| 20260904080106 | 82 | 290 | 3.0 | 7.0 | 0.00 | 0.00 | 0.00 | 50 | 1013.6 |
| 20260904074558 | 82 | 293 | 4.0 | 5.0 | 0.00 | 0.00 | 0.00 | 52 | 1013.8 |
| 20260904073117 | 83 | 292 | 4.0 | 7.0 | 0.00 | 0.00 | 0.00 | 51 | 1013.8 |
| 20260904071558 | 82 | 316 | 3.0 | 5.0 | 0.00 | 0.00 | 0.00 | 53 | 1013.6 |
| 20260904070108 | 82 | 293 | 4.0 | 7.0 | 0.00 | 0.00 | 0.00 | 56 | 1013.7 |
| 20260904064605 | 83 | 0 | 1.0 | 6.0 | 0.00 | 0.00 | 0.00 | 51 | 1013.7 |
| 20260904063107 | 83 | 85 | 3.0 | 8.0 | 0.00 | 0.00 | 0.00 | 50 | 1013.6 |
| 20260904061554 | 83 | 78 | 7.0 | 11.0 | 0.00 | 0.00 | 0.00 | 49 | 1013.7 |
| 20260904060129 | 85 | 93 | 10.0 | 15.0 | 0.00 | 0.00 | 0.00 | 47 | 1013.6 |
| 20260904054634 | 85 | 111 | 9.0 | 14.0 | 0.00 | 0.00 | 0.00 | 46 | 1013.5 |
| 20260904053058 | 84 | 0 | 1.0 | 6.0 | 0.00 | 0.00 | 0.00 | 47 | 1013.6 |
| 20260904051601 | 83 | 69 | 3.0 | 5.0 | 0.00 | 0.00 | 0.00 | 48 | 1013.5 |
| 20260904044602 | 84 | 0 | 1.0 | 5.0 | 0.00 | 0.00 | 0.00 | 47 | 1013.2 |
| 20260904043105 | 84 | 28 | 1.0 | 5.0 | 0.00 | 0.00 | 0.00 | 46 | 1013.3 |
| 20260904041605 | 85 | 16 | 5.0 | 9.0 | 0.00 | 0.00 | 0.00 | 44 | 1013.1 |
| 20260904034558 | 86 | 313 | 5.0 | 9.0 | 0.00 | 0.00 | 0.00 | 45 | 1012.8 |
| 20260904033101 | 87 | 261 | 1.0 | 4.0 | 0.00 | 0.00 | 0.00 | 42 | 1012.4 |
| 20260904031607 | 88 | 254 | 3.0 | 6.0 | 0.00 | 0.00 | 0.00 | 40 | 1012.3 |
| 20260904030103 | 88 | 248 | 3.0 | 6.0 | 0.00 | 0.00 | 0.00 | 40 | 1012.3 |
| 20260904024607 | 89 | 233 | 4.0 | 8.0 | 0.00 | 0.00 | 0.00 | 40 | 1012.2 |
| 20260904023107 | 89 | 235 | 5.0 | 10.0 | 0.00 | 0.00 | 0.00 | 39 | 1011.9 |
| 20260904021558 | 90 | 240 | 6.0 | 10.0 | 0.00 | 0.00 | 0.00 | 38 | 1011.5 |
| 20260904020106 | 91 | 0 | 1.0 | 4.0 | 0.00 | 0.00 | 0.00 | 38 | 1011.4 |
| 20260904014621 | 92 | 0 | 2.0 | 7.0 | 0.00 | 0.00 | 0.00 | 36 | 1011.2 |
| 20260904013121 | 93 | 216 | 7.0 | 11.0 | 0.00 | 0.00 | 0.00 | 35 | 1011.0 |
| 20260904011600 | 94 | 209 | 5.0 | 8.0 | 0.00 | 0.00 | 0.00 | 34 | 1011.0 |
| 20260904010116 | 95 | 222 | 7.0 | 12.0 | 0.00 | 0.00 | 0.00 | 32 | 1010.8 |
| 20260904004558 | 98 | 170 | 2.0 | 4.0 | 0.00 | 0.03 | 0.00 | 26 | 1010.7 |
| 20260904003121 | 99 | 158 | 2.0 | 8.0 | 0.00 | 0.03 | 0.00 | 26 | 1010.8 |
| 20260904001601 | 99 | 150 | 3.0 | 5.0 | 0.00 | 0.03 | 0.00 | 26 | 1010.9 |
| 20260904000103 | 98 | 0 | 3.0 | 9.0 | 0.00 | 0.03 | 0.00 | 26 | 1010.9 |
| 20260903234601 | 98 | 134 | 0.0 | 8.0 | 0.00 | 0.12 | 0.00 | 28 | 1010.8 |
| 20260903233104 | 99 | 0 | 3.0 | 6.0 | 0.00 | 0.12 | 0.00 | 25 | 1010.7 |
| 20260903231600 | 100 | 0 | 0.0 | 6.0 | 0.00 | 0.12 | 0.00 | 25 | 1010.9 |
| 20260903230106 | 100 | 248 | 4.0 | 11.0 | 0.00 | 0.12 | 0.00 | 25 | 1010.9 |
| 20260903224600 | 99 | 239 | 2.0 | 11.0 | 0.00 | 0.12 | 0.00 | 26 | 1010.9 |
| 20260903223108 | 99 | 227 | 0.0 | 10.0 | 0.00 | 0.12 | 0.00 | 26 | 1010.8 |
| 20260903221602 | 98 | 244 | 6.0 | 13.0 | 0.00 | 0.12 | 0.00 | 26 | 1011.0 |
| 20260903220104 | 98 | 238 | 9.0 | 14.0 | 0.00 | 0.12 | 0.00 | 27 | 1011.0 |
| 20260903214601 | 98 | 235 | 10.0 | 16.0 | 0.00 | 0.12 | 0.00 | 28 | 1011.4 |
| 20260903213100 | 99 | 268 | 12.0 | 17.0 | 0.00 | 0.12 | 0.00 | 27 | 1011.5 |
| 20260903211612 | 98 | 218 | 12.0 | 18.0 | 0.00 | 0.12 | 0.00 | 27 | 1011.6 |
| 20260903204603 | 98 | 248 | 14.0 | 22.0 | 0.00 | 0.12 | 0.00 | 26 | 1012.0 |
| 20260903203100 | 98 | 266 | 15.0 | 22.0 | 0.00 | 0.12 | 0.00 | 28 | 1012.3 |